SWR27G LSZH-EDDH

Flight info

Callsign SWR27G
Flight time 1h 12m
Altitude 38000
Route DEGES Z1 ETAGO Z3 LBU/N0444F300 N851 RIMKI/N0405F240 N851 OSBIT P605 NOLGO NOLGO6A
Aircraft A321/M-SDE3FGHIRWY/LB1

Departure

Time 2026-04-26 10:05
Airport Zürich Airport (LSZH)

Arrival

Time 2026-04-26 11:17
Airport Hamburg Helmut Schmidt Airport (EDDH)
Time Latitude Longitude Altitude Speed Heading
2026-04-26 09:31 47.45343 8.55754 1408 ft 0 kts
2026-04-26 09:55 47.45338 8.55753 1397 ft 4 kts
2026-04-26 09:55 47.45311 8.55749 1400 ft 4 kts
2026-04-26 09:56 47.45289 8.55746 1405 ft 4 kts 353°
2026-04-26 09:56 47.45267 8.55759 1399 ft 4 kts 301°
2026-04-26 09:56 47.45259 8.55796 1401 ft 4 kts 275°
2026-04-26 09:56 47.45259 8.55805 1405 ft 0 kts 276°
2026-04-26 09:59 47.45260 8.55785 1399 ft 4 kts 276°
2026-04-26 09:59 47.45266 8.55705 1399 ft 9 kts 276°
2026-04-26 09:59 47.45272 8.55618 1397 ft 9 kts 275°
2026-04-26 09:59 47.45331 8.55538 1404 ft 15 kts 335°
2026-04-26 10:00 47.45425 8.55475 1405 ft 14 kts 335°
2026-04-26 10:00 47.45512 8.55414 1399 ft 14 kts 333°
2026-04-26 10:00 47.45597 8.55357 1402 ft 13 kts 336°
2026-04-26 10:00 47.45664 8.55367 1406 ft 10 kts 63°
2026-04-26 10:01 47.45666 8.55472 1397 ft 11 kts 96°
2026-04-26 10:01 47.45657 8.55587 1397 ft 13 kts 96°
2026-04-26 10:01 47.45647 8.55744 1406 ft 18 kts 95°
2026-04-26 10:01 47.45632 8.55937 1401 ft 19 kts 96°
2026-04-26 10:02 47.45619 8.56126 1397 ft 18 kts 95°
2026-04-26 10:02 47.45606 8.56312 1397 ft 19 kts 96°
2026-04-26 10:02 47.45591 8.56524 1400 ft 20 kts 96°
2026-04-26 10:02 47.45577 8.56724 1404 ft 20 kts 96°
2026-04-26 10:03 47.45563 8.56913 1397 ft 12 kts 97°
2026-04-26 10:03 47.45577 8.56998 1403 ft 6 kts 44°
2026-04-26 10:03 47.45618 8.57023 1400 ft 10 kts
2026-04-26 10:03 47.45659 8.57028 1398 ft 2 kts 347°
2026-04-26 10:04 47.45660 8.57010 1404 ft 3 kts 277°
2026-04-26 10:04 47.45678 8.56781 1406 ft 57 kts 276°
2026-04-26 10:04 47.45743 8.55849 1402 ft 122 kts 276°
2026-04-26 10:04 47.45851 8.54343 1403 ft 171 kts 277°
2026-04-26 10:05 47.45972 8.52572 1978 ft 170 kts 278°
2026-04-26 10:05 47.46088 8.50851 2747 ft 168 kts 279°
2026-04-26 10:05 47.46211 8.49137 3444 ft 168 kts 278°
2026-04-26 10:05 47.46011 8.47455 4079 ft 170 kts 238°
2026-04-26 10:06 47.45322 8.46023 4584 ft 173 kts 239°
2026-04-26 10:06 47.44727 8.44391 4959 ft 191 kts 241°
2026-04-26 10:06 47.44076 8.42557 5188 ft 213 kts 241°
2026-04-26 10:06 47.43366 8.40532 5404 ft 230 kts 242°
2026-04-26 10:07 47.42565 8.38438 5836 ft 237 kts 230°
2026-04-26 10:07 47.41228 8.37099 6502 ft 234 kts 195°
2026-04-26 10:07 47.39626 8.37078 7106 ft 233 kts 164°
2026-04-26 10:07 47.38204 8.38178 7676 ft 234 kts 137°
2026-04-26 10:08 47.37284 8.40137 8238 ft 235 kts 109°
2026-04-26 10:08 47.37095 8.42522 8792 ft 237 kts 85°
2026-04-26 10:08 47.37241 8.44961 9370 ft 242 kts 84°
2026-04-26 10:08 47.37398 8.47552 9561 ft 266 kts 84°
2026-04-26 10:09 47.37566 8.50369 9896 ft 284 kts 84°
2026-04-26 10:09 47.37737 8.53318 10403 ft 295 kts 84°
2026-04-26 10:09 47.37914 8.56450 10568 ft 318 kts 84°
2026-04-26 10:09 47.38099 8.59810 10695 ft 340 kts 85°
2026-04-26 10:10 47.38292 8.63387 10875 ft 358 kts 84°
2026-04-26 10:10 47.38492 8.67088 11356 ft 365 kts 84°
2026-04-26 10:10 47.38694 8.70844 11959 ft 369 kts 84°
2026-04-26 10:10 47.38899 8.74645 12544 ft 374 kts 84°
2026-04-26 10:11 47.39104 8.78494 13136 ft 379 kts 85°
2026-04-26 10:11 47.39310 8.82389 13727 ft 382 kts 85°
2026-04-26 10:11 47.39518 8.86321 14238 ft 387 kts 85°
2026-04-26 10:11 47.39727 8.90293 14774 ft 390 kts 85°
2026-04-26 10:12 47.39935 8.94295 15284 ft 393 kts 85°
2026-04-26 10:12 47.40145 8.98345 15751 ft 397 kts 85°
2026-04-26 10:12 47.40356 9.02416 16262 ft 399 kts 84°
2026-04-26 10:12 47.40566 9.06514 16730 ft 402 kts 84°
2026-04-26 10:13 47.40777 9.10654 17195 ft 405 kts 85°
2026-04-26 10:13 47.40988 9.14807 17659 ft 407 kts 84°
2026-04-26 10:13 47.41448 9.18934 18071 ft 409 kts 74°
2026-04-26 10:13 47.42382 9.22897 18498 ft 410 kts 64°
2026-04-26 10:14 47.43737 9.26605 18856 ft 412 kts 58°
2026-04-26 10:14 47.45176 9.30275 19228 ft 414 kts 59°
2026-04-26 10:14 47.46654 9.33940 19586 ft 416 kts 54°
2026-04-26 10:14 47.48471 9.37271 19932 ft 417 kts 44°
2026-04-26 10:15 47.50674 9.40076 20302 ft 418 kts 33°
2026-04-26 10:15 47.53191 9.42239 20656 ft 419 kts 23°
2026-04-26 10:15 47.55920 9.43741 21015 ft 421 kts 17°
2026-04-26 10:15 47.58757 9.44846 21385 ft 422 kts
2026-04-26 10:16 47.61676 9.45289 21751 ft 423 kts
2026-04-26 10:16 47.64626 9.45444 22140 ft 426 kts
2026-04-26 10:16 47.67597 9.45604 22522 ft 429 kts
2026-04-26 10:16 47.70588 9.45767 22908 ft 432 kts
2026-04-26 10:17 47.73603 9.45930 23301 ft 434 kts
2026-04-26 10:17 47.76632 9.46096 23673 ft 437 kts
2026-04-26 10:17 47.79679 9.46261 24008 ft 440 kts
2026-04-26 10:17 47.82747 9.46376 24308 ft 441 kts 359°
2026-04-26 10:18 47.85825 9.46400 24629 ft 443 kts 358°
2026-04-26 10:18 47.88918 9.46371 24935 ft 446 kts 357°
2026-04-26 10:18 47.92024 9.46319 25256 ft 448 kts 357°
2026-04-26 10:18 47.95144 9.46265 25573 ft 450 kts 357°
2026-04-26 10:19 47.98284 9.46228 25891 ft 452 kts 357°
2026-04-26 10:19 48.01433 9.46209 26208 ft 454 kts 357°
2026-04-26 10:19 48.04592 9.46201 26518 ft 456 kts 358°
2026-04-26 10:19 48.07773 9.46200 26819 ft 458 kts 357°
2026-04-26 10:20 48.10965 9.46200 27122 ft 460 kts 357°
2026-04-26 10:20 48.13085 9.46199 27309 ft 461 kts 357°
2026-04-26 10:20 48.17388 9.46191 27666 ft 463 kts 357°
2026-04-26 10:20 48.20624 9.46189 27925 ft 465 kts 357°
2026-04-26 10:21 48.23866 9.46191 28168 ft 467 kts 357°
2026-04-26 10:21 48.27117 9.46193 28407 ft 469 kts 357°
2026-04-26 10:21 48.30384 9.46197 28600 ft 471 kts 357°
2026-04-26 10:21 48.33670 9.46202 28828 ft 472 kts 357°
2026-04-26 10:22 48.36941 9.46208 29121 ft 471 kts 357°
2026-04-26 10:22 48.40220 9.46213 29414 ft 470 kts 357°
2026-04-26 10:22 48.43489 9.46216 29700 ft 470 kts 357°
2026-04-26 10:22 48.46757 9.46215 29994 ft 469 kts 357°
2026-04-26 10:23 48.50027 9.46216 30279 ft 469 kts 357°
2026-04-26 10:23 48.53292 9.46220 30533 ft 469 kts 357°
2026-04-26 10:23 48.56545 9.46212 30777 ft 468 kts 356°
2026-04-26 10:23 48.58702 9.46194 30945 ft 468 kts 356°
2026-04-26 10:24 48.61952 9.46152 31222 ft 467 kts 356°
2026-04-26 10:24 48.65199 9.46101 31502 ft 466 kts 356°
2026-04-26 10:24 48.68438 9.46051 31769 ft 465 kts 356°
2026-04-26 10:24 48.72668 9.45363 32125 ft 460 kts 345°
2026-04-26 10:25 48.74755 9.44546 32298 ft 457 kts 339°
2026-04-26 10:25 48.77706 9.42818 32572 ft 453 kts 333°
2026-04-26 10:25 48.80600 9.40939 32855 ft 453 kts 333°
2026-04-26 10:25 48.83500 9.39060 33133 ft 452 kts 333°
2026-04-26 10:26 48.86391 9.37192 33416 ft 451 kts 333°
2026-04-26 10:26 48.89307 9.35399 33693 ft 453 kts 338°
2026-04-26 10:26 48.92357 9.34194 33963 ft 456 kts 347°
2026-04-26 10:26 48.95525 9.33699 34265 ft 458 kts 354°
2026-04-26 10:27 48.98704 9.33462 34511 ft 457 kts 354°
2026-04-26 10:27 49.01876 9.33209 34757 ft 456 kts 353°
2026-04-26 10:27 49.05046 9.32947 34992 ft 455 kts 353°
2026-04-26 10:27 49.08199 9.32683 35219 ft 454 kts 353°
2026-04-26 10:28 49.11318 9.32428 35452 ft 454 kts 354°
2026-04-26 10:28 49.14468 9.32173 35679 ft 453 kts 354°
2026-04-26 10:28 49.17610 9.31917 35936 ft 451 kts 354°
2026-04-26 10:28 49.20741 9.31662 36182 ft 451 kts 354°
2026-04-26 10:29 49.26913 9.31182 36253 ft 448 kts 354°
2026-04-26 10:29 49.33149 9.30706 36253 ft 447 kts 354°
2026-04-26 10:30 49.39361 9.31091 36258 ft 451 kts
2026-04-26 10:30 49.45615 9.32028 36260 ft 450 kts
2026-04-26 10:31 49.51868 9.32963 36267 ft 450 kts
2026-04-26 10:31 49.58086 9.33884 36269 ft 450 kts
2026-04-26 10:32 49.64339 9.34802 36280 ft 451 kts
2026-04-26 10:32 49.70550 9.35843 36277 ft 453 kts
2026-04-26 10:33 49.76501 9.39183 36269 ft 459 kts 27°
2026-04-26 10:33 49.81674 9.45188 36289 ft 463 kts 38°
2026-04-26 10:34 49.86558 9.51534 36290 ft 463 kts 38°
2026-04-26 10:34 49.91508 9.57973 36284 ft 463 kts 38°
2026-04-26 10:35 49.96427 9.64388 36283 ft 464 kts 38°
2026-04-26 10:35 50.01372 9.70870 36284 ft 463 kts 36°
2026-04-26 10:36 50.06940 9.75753 36294 ft 457 kts 17°
2026-04-26 10:36 50.13090 9.77570 36295 ft 450 kts 358°
2026-04-26 10:37 50.19332 9.77058 36292 ft 448 kts 353°
2026-04-26 10:37 50.25531 9.76439 36294 ft 448 kts 354°
2026-04-26 10:38 50.31779 9.75822 36297 ft 449 kts 354°
2026-04-26 10:38 50.38031 9.75191 36298 ft 449 kts 354°
2026-04-26 10:39 50.44285 9.74551 36299 ft 449 kts 354°
2026-04-26 10:39 50.50501 9.73916 36315 ft 450 kts 354°
2026-04-26 10:40 50.56720 9.73281 36313 ft 449 kts 354°
2026-04-26 10:40 50.62975 9.72646 36309 ft 449 kts 354°
2026-04-26 10:41 50.69191 9.72016 36315 ft 449 kts 354°
2026-04-26 10:41 50.75448 9.71369 36316 ft 450 kts 354°
2026-04-26 10:42 50.81706 9.70722 36316 ft 450 kts 354°
2026-04-26 10:42 50.87925 9.70073 36317 ft 450 kts 354°
2026-04-26 10:43 50.94203 9.69732 36329 ft 451 kts 357°
2026-04-26 10:43 51.00452 9.69654 36326 ft 451 kts 358°
2026-04-26 10:44 51.06742 9.69564 36325 ft 451 kts 357°
2026-04-26 10:44 51.13057 9.69376 36327 ft 451 kts 356°
2026-04-26 10:45 51.19322 9.69138 36333 ft 450 kts 357°
2026-04-26 10:45 51.25586 9.69926 36333 ft 452 kts
2026-04-26 10:46 51.31835 9.70949 36336 ft 451 kts
2026-04-26 10:46 51.38083 9.71956 36340 ft 451 kts
2026-04-26 10:47 51.44335 9.72964 36345 ft 451 kts
2026-04-26 10:47 51.50576 9.74013 36345 ft 451 kts
2026-04-26 10:48 51.56808 9.75203 36341 ft 451 kts
2026-04-26 10:48 51.63039 9.76434 36345 ft 451 kts
2026-04-26 10:49 51.69269 9.77624 36347 ft 450 kts
2026-04-26 10:49 51.75489 9.78802 36348 ft 450 kts
2026-04-26 10:50 51.80660 9.79789 36344 ft 450 kts
2026-04-26 10:50 51.87924 9.81179 36363 ft 450 kts
2026-04-26 10:51 51.97231 9.82975 36351 ft 449 kts
2026-04-26 10:52 52.03387 9.84178 36345 ft 448 kts
2026-04-26 10:52 52.09586 9.85392 36347 ft 448 kts
2026-04-26 10:53 52.15786 9.86603 36353 ft 449 kts
2026-04-26 10:53 52.21989 9.87821 36355 ft 449 kts
2026-04-26 10:54 52.31143 9.91092 36142 ft 445 kts 12°
2026-04-26 10:54 52.34108 9.92396 35885 ft 437 kts 12°
2026-04-26 10:54 52.37035 9.93680 35652 ft 434 kts 12°
2026-04-26 10:55 52.39946 9.94959 35402 ft 432 kts 12°
2026-04-26 10:55 52.42840 9.96233 35159 ft 430 kts 11°
2026-04-26 10:55 52.45728 9.97500 34639 ft 432 kts 11°
2026-04-26 10:55 52.47660 9.98350 34148 ft 433 kts 11°
2026-04-26 10:56 52.51508 10.00057 33549 ft 425 kts 11°
2026-04-26 10:56 52.54344 10.01322 33019 ft 421 kts 11°
2026-04-26 10:56 52.57162 10.02584 32513 ft 417 kts 11°
2026-04-26 10:56 52.59948 10.03832 32028 ft 413 kts 11°
2026-04-26 10:57 52.62707 10.05065 31555 ft 408 kts 11°
2026-04-26 10:57 52.65439 10.06289 31078 ft 404 kts 10°
2026-04-26 10:57 52.68139 10.07499 30596 ft 400 kts 10°
2026-04-26 10:57 52.70817 10.08700 30055 ft 396 kts 10°
2026-04-26 10:58 52.73462 10.09891 29471 ft 392 kts 11°
2026-04-26 10:58 52.76027 10.11038 28626 ft 382 kts
2026-04-26 10:58 52.78604 10.11754 27594 ft 370 kts
2026-04-26 10:58 52.81138 10.11907 26606 ft 361 kts 356°
2026-04-26 10:59 52.83636 10.11976 25421 ft 360 kts 357°
2026-04-26 10:59 52.86147 10.12048 24216 ft 361 kts 357°
2026-04-26 10:59 52.88645 10.12128 23054 ft 357 kts 358°
2026-04-26 10:59 52.91112 10.12212 21930 ft 351 kts 358°
2026-04-26 11:00 52.93560 10.12297 21161 ft 351 kts 358°
2026-04-26 11:00 52.95952 10.12380 21013 ft 337 kts 358°
2026-04-26 11:00 52.98270 10.12463 20682 ft 330 kts 358°
2026-04-26 11:00 53.00549 10.12543 20243 ft 326 kts 357°
2026-04-26 11:01 53.02807 10.12618 19788 ft 324 kts 357°
2026-04-26 11:01 53.05055 10.12691 19336 ft 322 kts 357°
2026-04-26 11:01 53.07281 10.12764 18891 ft 320 kts 357°
2026-04-26 11:01 53.09500 10.12833 18430 ft 317 kts 357°
2026-04-26 11:02 53.11699 10.12899 17947 ft 315 kts 357°
2026-04-26 11:02 53.13882 10.12963 17489 ft 312 kts 358°
2026-04-26 11:02 53.16047 10.13032 17026 ft 310 kts 358°
2026-04-26 11:02 53.18191 10.13103 16579 ft 307 kts 358°
2026-04-26 11:03 53.20318 10.13175 16144 ft 305 kts 358°
2026-04-26 11:03 53.22429 10.13249 15713 ft 302 kts 358°
2026-04-26 11:03 53.24522 10.13320 15302 ft 300 kts 358°
2026-04-26 11:03 53.26603 10.13391 14889 ft 297 kts 358°
2026-04-26 11:04 53.28664 10.13458 14485 ft 295 kts 358°
2026-04-26 11:04 53.30710 10.13522 14091 ft 293 kts 358°
2026-04-26 11:04 53.32731 10.13587 13704 ft 289 kts 358°
2026-04-26 11:04 53.34746 10.13654 13122 ft 287 kts 358°
2026-04-26 11:05 53.36731 10.13724 12249 ft 284 kts 359°
2026-04-26 11:05 53.38691 10.13793 11572 ft 276 kts 359°
2026-04-26 11:05 53.40584 10.13719 11196 ft 270 kts 353°
2026-04-26 11:05 53.42449 10.13472 11062 ft 274 kts 354°
2026-04-26 11:06 53.44355 10.13232 10897 ft 274 kts 354°
2026-04-26 11:06 53.45639 10.13072 10778 ft 274 kts 354°
2026-04-26 11:06 53.48151 10.12755 10534 ft 273 kts 354°
2026-04-26 11:06 53.50043 10.12510 10221 ft 274 kts 354°
2026-04-26 11:07 53.51942 10.12266 9836 ft 271 kts 354°
2026-04-26 11:07 53.53806 10.12032 9637 ft 263 kts 354°
2026-04-26 11:07 53.55586 10.11809 9502 ft 250 kts 354°
2026-04-26 11:07 53.57286 10.11878 9314 ft 242 kts
2026-04-26 11:08 53.58832 10.12931 9133 ft 241 kts 30°
2026-04-26 11:08 53.60068 10.14853 9009 ft 246 kts 47°
2026-04-26 11:08 53.61164 10.17073 8869 ft 246 kts 46°
2026-04-26 11:08 53.62245 10.19256 8740 ft 245 kts 46°
2026-04-26 11:09 53.62982 10.20741 8603 ft 245 kts 47°
2026-04-26 11:09 53.64072 10.22942 8229 ft 245 kts 47°
2026-04-26 11:09 53.65527 10.25872 7762 ft 244 kts 47°
2026-04-26 11:09 53.66622 10.28078 7391 ft 244 kts 47°
2026-04-26 11:10 53.67700 10.30255 7094 ft 242 kts 48°
2026-04-26 11:10 53.68427 10.31726 6864 ft 241 kts 48°
2026-04-26 11:10 53.69519 10.33871 6500 ft 240 kts 41°
2026-04-26 11:10 53.70943 10.35185 6130 ft 234 kts
2026-04-26 11:11 53.72534 10.34998 5771 ft 232 kts 338°
2026-04-26 11:11 53.73874 10.33497 5373 ft 232 kts 320°
2026-04-26 11:11 53.75135 10.31709 4730 ft 240 kts 319°
2026-04-26 11:11 53.76294 10.29808 4271 ft 227 kts 301°
2026-04-26 11:12 53.76615 10.27325 4070 ft 214 kts 261°
2026-04-26 11:12 53.76006 10.25201 3924 ft 199 kts 231°
2026-04-26 11:12 53.75132 10.23425 3675 ft 190 kts 230°
2026-04-26 11:12 53.74297 10.21742 3423 ft 185 kts 230°
2026-04-26 11:13 53.73480 10.20079 3176 ft 184 kts 230°
2026-04-26 11:13 53.72667 10.18419 2928 ft 183 kts 230°
2026-04-26 11:13 53.71869 10.16791 2668 ft 182 kts 230°
2026-04-26 11:13 53.71055 10.15131 2420 ft 181 kts 230°
2026-04-26 11:14 53.70262 10.13514 2170 ft 180 kts 230°
2026-04-26 11:14 53.69477 10.11914 1924 ft 172 kts 230°
2026-04-26 11:14 53.68749 10.10431 1702 ft 157 kts 230°
2026-04-26 11:14 53.68081 10.09070 1484 ft 145 kts 230°
2026-04-26 11:15 53.67446 10.07780 1287 ft 141 kts 230°
2026-04-26 11:15 53.66827 10.06521 1101 ft 139 kts 230°
2026-04-26 11:15 53.66213 10.05272 905 ft 138 kts 230°
2026-04-26 11:15 53.65598 10.04023 709 ft 138 kts 231°
2026-04-26 11:16 53.64982 10.02774 532 ft 139 kts 231°
2026-04-26 11:16 53.64368 10.01512 326 ft 139 kts 231°
2026-04-26 11:16 53.63745 10.00253 143 ft 140 kts 232°
2026-04-26 11:16 53.63135 9.99018 52 ft 128 kts 230°
2026-04-26 11:17 53.62699 9.98139 50 ft 71 kts 230°
2026-04-26 11:17 53.62521 9.97795 47 ft 21 kts 213°
2026-04-26 11:17 53.62431 9.97868 50 ft 13 kts 110°
2026-04-26 11:17 53.62441 9.98003 50 ft 11 kts 73°
2026-04-26 11:18 53.62476 9.98115 49 ft 11 kts 52°
2026-04-26 11:18 53.62531 9.98231 50 ft 17 kts 50°
2026-04-26 11:18 53.62608 9.98388 51 ft 18 kts 50°
2026-04-26 11:18 53.62686 9.98546 51 ft 18 kts 50°
2026-04-26 11:19 53.62765 9.98704 50 ft 18 kts 50°
2026-04-26 11:19 53.62844 9.98866 50 ft 18 kts 50°
2026-04-26 11:19 53.62924 9.99026 50 ft 18 kts 50°
2026-04-26 11:19 53.63004 9.99188 50 ft 18 kts 50°
2026-04-26 11:20 53.63089 9.99377 50 ft 23 kts 55°
2026-04-26 11:20 53.63151 9.99526 50 ft 24 kts 52°
2026-04-26 11:20 53.63297 9.99800 50 ft 23 kts 50°
2026-04-26 11:20 53.63391 9.99991 51 ft 18 kts 50°
2026-04-26 11:21 53.63427 10.00119 51 ft 11 kts 104°
2026-04-26 11:21 53.63377 10.00195 51 ft 10 kts 171°
2026-04-26 11:21 53.63303 10.00204 51 ft 12 kts 175°
2026-04-26 11:21 53.63248 10.00221 51 ft 5 kts 142°
2026-04-26 11:22 53.63244 10.00290 51 ft 6 kts 86°
2026-04-26 11:22 53.63247 10.00350 51 ft 3 kts 87°
2026-04-26 11:22 53.63247 10.00357 51 ft 0 kts 87°